Regional Weather Roundup
Issued by NWS Charleston, SC

Current Version | Previous Version | Graphics & Text | Print | Product List | Glossary On
Versions: 1 2 3 4 5 6 7 8 9 10 11 12 13 14 15 16 17 18 19 20 21 22 23 24 25 26 27 28 29 30 31 32 33 34 35 36 37 38 39 40 41 42 43 44 45 46 47 48 49 50
000 ASUS42 KCHS 050712 RWRCHS REGIONAL WEATHER ROUNDUP NATIONAL WEATHER SERVICE CHARLESTON SC 300 AM EDT SUN JUL 05 2015 NOTE: "FAIR" INDICATES FEW OR NO CLOUDS BELOW 12,000 FEET WITH NO SIGNIFICANT WEATHER AND/OR OBSTRUCTIONS TO VISIBILITY. NOT ALL STATIONS ARE QUALITY CONTROLLED BY THE NATIONAL WEATHER SERVICE. USE DATA WITH CAUTION...ESPECIALLY DEWPOINT OBSERVATIONS. SCZ027-030-031-034>040-042>050-050800- ...SOUTHEAST SOUTH CAROLINA... CITY SKY/WX TMP DP RH WIND PRES REMARKS N CHARLESTON PTCLDY 73 71 93 SW3 30.09S WATERFRONT PAR N/A 77 74 91 CALM 30.06F MOUNT PLEASANT FAIR 73 72 94 CALM 30.09S FOG JOHNS ISLAND FAIR 75 73 94 CALM 30.10R PINOPOLIS NOT AVBL MONCKS CORNER FAIR 72 70 94 CALM 30.09S SUMMERVILLE FAIR 70 70 100 CALM 30.10S BEAUFORT MCAS CLEAR 74 72 93 SW6 30.10S BEAUFORT ARPT FAIR 75 73 94 SW8 30.10S HILTON HEAD IS PTCLDY 75 75 100 S5 30.11S WALTERBORO MOSUNNY 70 68 94 CALM 30.11R ALLENDALE FAIR 72 70 94 CALM 30.09F ...SOUTHERN MIDLANDS AND PEE DEE... CITY SKY/WX TMP DP RH WIND PRES REMARKS GEORGETOWN NOT AVBL KINGSTREE NOT AVBL ORANGEBURG MOCLDY 71 68 90 SW6 30.09S BARNWELL FAIR 72 72 100 S3 30.10S AIKEN NOT AVBL MANNING FAIR 72 68 88 SW6 30.09R COLUMBIA CLOUDY 74 68 81 SW6 30.07S SUMTER CLOUDY 73 67 82 SW8 30.06S FLORENCE MOCLDY 75 68 78 W6 30.07S MYRTLE BEACH PTCLDY 75 64 69 W3 30.11R N MYRTLE BEACH PTCLDY 75 65 70 SW5 30.08S $$ GAZ063-065-086>088-099>101-113>116-118-119-134>141-150-050800- ...SOUTHEAST GEORGIA... CITY SKY/WX TMP DP RH WIND PRES REMARKS SAVANNAH ARPT PTCLDY 73 69 87 S7 30.11F HUNTER AAF PTCLDY 72 72 100 S3 30.08F FORT STEWART MOCLDY 72 70 92 SE2 30.09F STATESBORO NOT AVBL SYLVANIA MOSUNNY 73 73 100 SE3 30.10F CLAXTON FAIR 72 70 94 CALM 30.09F ...CSRA...CENTRAL AND FAR SOUTHEAST GEORGIA... CITY SKY/WX TMP DP RH WIND PRES REMARKS THOMSON CLOUDY 74 74 98 CALM 30.12S AUGUSTA-BUSH CLOUDY 72 70 93 S3 30.07F AUGUSTA-DANIEL CLOUDY 74 69 85 S6 30.08F SWAINSBORO FAIR N/A N/A N/A S6 30.09S VIDALIA PTCLDY 72 70 94 S7 30.10R EASTMAN FAIR 72 72 100 CALM 30.12R HAZLEHURST FAIR 73 73 100 CALM 30.10S ALMA PTCLDY 71 69 93 W3 30.11F WAYCROSS PTCLDY 74 74 99 S3 30.10F JESUP FAIR 73 72 94 CALM 30.11F BAXLEY FAIR 72 70 94 S6 30.10F BRUNSWICK PTCLDY 72 70 94 W3 30.12F SAINT SIMONS PTCLDY 74 73 97 S5 30.11F $$ SCZ027-028-034-036>038-045-046-048>050-GAZ119-141-050800- ...LAKE AND SUPPLEMENTAL COASTAL OBSERVATIONS... STATION/POSITION TIME TEMP WIND PRES WAVE SWELL AIR SEA DIR/SP/G HT/PER HT/PER/DIR (UTC) (F) (DEG/KT/KT) (MB) (FT/S) (FT/S/D) UPR LAKE MARION NOT AVBL WINYAH BAY 0545 77 240/ 7 1018.0 LAKE MURRAY 0600 76 240/ 9/ 12 1017.9S ACE BASIN NERRS NOT AVBL FORT PULASKI 0600 76 84 220/ 2/ 4 1020.1F SAPELO ISLAND 0600 75 200/ 5 1020.0S $$ ANZ835-935-AMZ111-154-330-350-352-354-370-450-454-472-050800- ...C-MAN AND BUOY OBSERVATIONS... STATION/POSITION TIME TEMP WIND PRES WAVE SWELL AIR SEA DIR/SP/G HT/PER HT/PER/DIR (UTC) (F) (DEG/KT/KT) (MB) (FT/S) (FT/S/D) BUOY 41004 0650 81 81 220/ 14/ 16 1018.6F 3/ 8 2/ 8 BUOY 41008 0650 79 79 230/ 8/ 10 1019.8F 2/ 9 2/100/ 9 FOLLY BEACH CMAN 0600 80 210/ 13/ 16 1019.1F CAPERS NEARSHORE 0608 81 220/ 16/ 19 1019.3F FRIPP NEARSHORE 0600 80 210/ 14/ 16 1018.8F STATION/POSITION TIME TEMP WIND PRES WAVE SWELL AIR SEA DIR/SP/G HT/PER HT/PER/DIR (UTC) (F) (DEG/KT/KT) (MB) (FT/S) (FT/S/D) 5E ST. MARYS GA 0621 77 N/A 1/10 FRYING PAN BUOY 0650 80 78 220/ 14/ 16 1019.2S 4/ 5 2/140/ 9 BUOY 41025 0650 80 81 240/ 17/ 19 1017.7R 5/ 6 2/140/ 9 CAPE LOOKOUT NC 0600 79 240/ 11/ 15 1017.9F BUOY 41002 0650 81 80 230/ 10/ 12 1021.4F 4/ 7 3/250/ 7 BUOY 41010 0620 83 84 160/ 10/ 12 1020.8F ST AUGUSTINE FL 0700 74 72 CALM / 1 1020.9F $$

USA.gov is the U.S. government's official web portal to all federal, state and local government web resources and services.